Location: Newark
(25.6108°S, 54.5803°W)
Time: 08:10:58
(UTC+00:00)

Tiros 1 - Pass Details

Date: 30 October 2020
Orbit: 630 x 664 km, 48.4° (Epoch: 29 November)

Event Time Altitude Azimuth Distance (km) Brightness Sun altitude
Rises 16:56:11 0° 306° (NW) 2,954 10.9 65.1°
Reaches altitude 10° 16:58:32 10° 303° (WNW) 2,055 10.3 64.6°
Maximum altitude 17:03:13 59° 222° (SW) 761 8.7 63.6°
Drops below altitude 10° 17:07:59 10° 142° (SE) 2,091 9.7 62.6°
Sets 17:10:24 0° 138° (SE) 3,011 10.3 62.1°
